Location: Baix
(44.7118°N, 4.7648°E)
Time: 12:57:23
(UTC+00:00)

Vanguard 2 Rocket - Pass Details

Date: 02 December 2020
Orbit: 554 x 3325 km, 32.9° (Epoch: 23 January)

Event Time Altitude Azimuth Distance (km) Brightness Sun altitude
Rises 07:41:44 0° 246° (WSW) 6,966 11.1 5.3°
Reaches altitude 10° 07:46:17 10° 242° (WSW) 6,124 10.9 6.0°
Maximum altitude 08:05:34 55° 172° (S) 3,638 10.5 8.5°
Drops below altitude 10° 08:21:39 10° 101° (ESE) 5,213 11.8 10.6°
Sets 08:25:09 0° 97° (E) 5,917 11.9 11.0°
